Weather History for Jordan, MT

Change the Weather History Date:

Tuesday, March 18, 2014

  Actual Average Record
Temperature  
Mean Temperature 35 °F 34 °F  
Max Temperature 44 °F 46 °F 71 °F (1972)
Min Temperature 26 °F 22 °F -22 °F (1965)
Degree Days  
Heating Degree Days 30 31  
Month to date heating degree days 635 619  
Since 1 July heating degree days 6948 6737  
Cooling Degree Days 0 0  
Month to date cooling degree days 0 0  
Year to date cooling degree days 0 0  
Moisture  
Dew Point 28 °F    
Average Humidity 71    
Maximum Humidity 92    
Minimum Humidity 49    
Precipitation  
Precipitation 0.00 in 0.02 in 0.47 in (1964)
Month to date precipitation 0.22 0.28  
Year to date precipitation 0.83 0.76  
Snow  
Snow 0.00 in - - ()
Month to date snowfall 0.0  
Since 1 July snowfall 0.0  
Snow Depth 0.00 in    
Sea Level Pressure  
Sea Level Pressure 30.03 in    
Wind  
Wind Speed 8 mph (WNW)    
Max Wind Speed 17 mph    
Max Gust Speed 25 mph    
T = Trace of Precipitation, MM = Missing Value Source: NWS Daily Summary

Daily Weather History Graph

Daily Weather History Graph

Search for Another Location

Airport:

Trip Planner

Search our weather history database for the weather conditions in past years. The results will help you decide how hot, cold, wet, or windy it might be!

Date:

Astronomy

Mar. 18, 2014 Rise Set
Actual Time 7:14 AM MDT 7:17 PM MDT
Civil Twilight 6:44 AM MDT 7:48 PM MDT
Nautical Twilight 6:08 AM MDT 8:24 PM MDT
Astronomical Twilight 5:31 AM MDT 9:01 PM MDT
Moon 9:49 PM MDT (3/18) 7:56 AM MDT (3/18)
Length of Visible Light 13h 04m
Length of Day
12h 03m
Waning Gibbous, 96% of the Moon is Illuminated
Mar 18
Waning Gibbous
Mar 23
Last Quarter
Mar 30
New
Apr 7
First Quarter
Apr 15
Full

Hourly Weather History & Observations

Time (MDT) Temp. Windchill Dew Point Humidity Pressure Visibility Wind Dir Wind Speed Gust Speed Precip Events Conditions
12:48 AM 33.1 °F 26.1 °F 28.0 °F 82% 29.88 in - NW 8.1 mph - N/A   Unknown
1:48 AM 28.0 °F 20.0 °F 26.1 °F 92% 29.91 in - WNW 8.1 mph - N/A   Unknown
2:48 AM 26.1 °F 19.4 °F 24.1 °F 92% 29.94 in - West 5.8 mph - N/A   Unknown
3:48 AM 27.0 °F 20.5 °F 25.0 °F 92% 29.96 in - WSW 5.8 mph - N/A   Unknown
4:48 AM 28.0 °F 22.8 °F 25.0 °F 88% 29.96 in - West 4.6 mph - N/A   Unknown
5:48 AM 27.0 °F 18.7 °F 25.0 °F 92% 29.99 in - West 8.1 mph - N/A   Unknown
6:48 AM 30.0 °F 21.7 °F 28.0 °F 92% 29.99 in - West 9.2 mph - N/A   Unknown
7:48 AM 30.9 °F 24.3 °F 28.0 °F 89% 30.02 in - West 6.9 mph - N/A   Unknown
8:48 AM 32.0 °F 28.7 °F 28.9 °F 88% 30.04 in - WNW 3.5 mph - N/A   Unknown
9:48 AM 35.1 °F 27.4 °F 30.0 °F 82% 30.05 in - NW 10.4 mph - N/A   Unknown
10:48 AM 36.0 °F 27.1 °F 28.9 °F 76% 30.07 in - NW 13.8 mph - N/A   Unknown
11:48 AM 39.9 °F 32.5 °F 30.0 °F 68% 30.08 in - NNW 12.7 mph - N/A   Unknown
12:48 PM 41.0 °F 33.9 °F 28.9 °F 62% 30.09 in - WNW 12.7 mph - N/A   Unknown
1:48 PM 43.0 °F 37.2 °F 28.0 °F 56% 30.08 in - WNW 10.4 mph 20.7 mph N/A   Unknown
2:48 PM 42.1 °F 37.7 °F 27.0 °F 55% 30.07 in - WNW 6.9 mph - N/A   Unknown
3:48 PM 44.1 °F 38.1 °F 27.0 °F 51% 30.06 in - WNW 11.5 mph - N/A   Unknown
4:48 PM 42.1 °F 34.2 °F 30.0 °F 62% 30.06 in - NW 16.1 mph - N/A   Unknown
5:48 PM 42.1 °F 35.7 °F 30.0 °F 62% 30.06 in - West 11.5 mph - N/A   Unknown
6:48 PM 41.0 °F 35.8 °F 28.9 °F 62% 30.05 in - WNW 8.1 mph - N/A   Unknown
7:48 PM 35.1 °F 27.4 °F 28.0 °F 76% 30.07 in - North 10.4 mph - N/A   Unknown
8:48 PM 33.1 °F 30.0 °F 28.0 °F 82% 30.08 in - WSW 3.5 mph - N/A   Unknown
9:48 PM 33.1 °F 27.7 °F 28.0 °F 82% 30.09 in - WNW 5.8 mph - N/A   Unknown
10:48 PM 30.9 °F 27.5 °F 27.0 °F 85% 30.08 in - West 3.5 mph - N/A   Unknown
11:48 PM 30.0 °F 24.1 °F 27.0 °F 88% 30.06 in - WNW 5.8 mph - N/A   Unknown